Regional Weather Roundup
Issued by NWS

Home | Current Version | Previous Version | Graphics & Text | Print | Product List | Glossary On
Versions: 1 2 3 4 5 6 7 8 9 10 11 12 13 14 15 16 17 18 19 20 21 22 23 24 25 26 27 28 29 30 31 32 33 34 35 36 37 38 39 40 41 42 43 44 45 46 47 48 49 50
000
ASUS44 KMEG 020910
RWRTN
TENNESSEE HOURLY STATE WEATHER ROUNDUP
NATIONAL WEATHER SERVICE MEMPHIS TN
400 AM CDT SUN AUG 02 2015

TNZ002-004-019-021-049-052-054-088>092-021000-
WEST TENNESSEE

CITY           SKY/WX    TMP DP  RH WIND       PRES   REMARKS
MEMPHIS INTL   CLEAR     80  67  64 CALM      29.96S
NWS MEMPHIS      N/A     71 N/A N/A MISG        N/A
JACKSON        CLEAR     71  67  87 CALM      29.97S
DYERSBURG        N/A    N/A N/A N/A MISG        N/A
PARIS          CLEAR     64  64 100 CALM      29.98S
LEXINGTON      CLEAR     68  68 100 CALM      29.97S
$$

TNZ008-025-027-028-033-062-065-066-021000-
NORTH MIDDLE TENNESSEE

CITY           SKY/WX    TMP DP  RH WIND       PRES   REMARKS
NASHVILLE      PTCLDY    68  64  87 CALM      29.98F
CLARKSVILLE    FOG       63  62  97 CALM      29.98S VSB 1
SMYRNA         PTCLDY    62  61  97 CALM      29.99S
CROSSVILLE     CLEAR     62  58  86 N3        30.04S
$$

TNZ061-075-076-078-094-096-097-021000-
SOUTH MIDDLE TENNESSEE

CITY           SKY/WX    TMP DP  RH WIND       PRES   REMARKS
FAYETTEVILLE   CLEAR     66  63  88 NE6       29.98S
TULLAHOMA      CLEAR     64  61  88 CALM      30.00S
WINCHESTER     CLEAR     63  63 100 CALM      29.98F
MCMINNVILLE    CLOUDY    63  63 100 CALM      29.99F VSB 1/4
COLUMBIA       CLEAR     66  66 100 CALM      29.97F
SHELBYVILLE    CLEAR     64  64 100 CALM      29.99F
$$

TNZ017-018-042-046-047-021000-
NORTHEAST TENNESSEE

CITY           SKY/WX    TMP DP  RH WIND       PRES   REMARKS
TRI CITIES     PTCLDY    59  58  96 N3        30.02S
ELIZABETHTON   SUNNY     59  57  94 CALM      30.03S
$$

TNZ012-013-036-069-073-074-021000-
CENTRAL EAST TENNESSEE

CITY           SKY/WX    TMP DP  RH WIND       PRES   REMARKS
KNOXVILLE      PTCLDY    66  64  93 N3        29.97F
OAK RIDGE      CLEAR     65  62  90 CALM      30.00S
GATLINBURG     SUNNY     63  59  88 CALM      29.98F
MORRISTOWN     SUNNY     64  63  94 CALM      30.01F
$$

TNZ083-085-099-021000-
SOUTHEAST TENNESSEE

CITY           SKY/WX    TMP DP  RH WIND       PRES   REMARKS
CHATTANOOGA    CLEAR     68  65  90 CALM      29.96F
$$

SKY/WX REPORTED AS FAIR MEANS FEW OR NO CLOUDS BELOW
12 THOUSAND FEET.




USA.gov is the U.S. government's official web portal to all federal, state and local government web resources and services.